This is the latest recevied weather packets stored in our database for station/object LRSM. If no packets are shown the sender has not sent any weather packets the latest 10 day(s).
| Time | Temp. | Humidity | Pressure | Rain* | Wind** | Luminosity | Snow |
|---|---|---|---|---|---|---|---|
| 1777645110 | 16.11° C | 27% | 1024 hPa | - | - | - | - |
| 1777644212 | 16.11° C | 27% | 1024 hPa | - | - | - | - |
| 1777643313 | 17.22° C | 24% | 1024 hPa | - | - | - | - |
| 1777642413 | 17.22° C | 24% | 1024 hPa | - | - | - | - |
| 1777641513 | 17.22° C | 24% | 1024 hPa | - | - | - | - |
| 1777640612 | 17.22° C | 24% | 1024 hPa | - | - | - | - |
| 1777639712 | 15° C | 27% | 1025 hPa | - | - | - | - |
| 1777638812 | 15° C | 27% | 1025 hPa | - | - | - | - |
| 1777637928 | 16.11° C | 25% | 1025 hPa | - | - | - | - |
| 1777637013 | 16.11° C | 25% | 1025 hPa | - | - | - | - |
| 1777636112 | 15° C | 27% | 1025 hPa | - | - | - | - |
| 1777635212 | 15° C | 27% | 1025 hPa | - | - | - | - |
| 1777634312 | 13.89° C | 29% | 1026 hPa | - | - | - | - |
| 1777633413 | 13.89° C | 29% | 1026 hPa | - | - | - | - |
| 1777632513 | 13.89° C | 27% | 1026 hPa | - | - | - | - |
| 1777631612 | 13.89° C | 27% | 1026 hPa | - | - | - | - |
| 1777630713 | 13.89° C | 27% | 1026 hPa | - | - | - | - |
| 1777629812 | 13.89° C | 27% | 1026 hPa | - | - | - | - |
| 1777628912 | 13.89° C | 27% | 1026 hPa | - | - | - | - |
| 1777628012 | 13.89° C | 27% | 1026 hPa | - | - | - | - |
| 1777627113 | 12.78° C | 26% | 1026 hPa | - | - | - | - |
| 1777626212 | 12.78° C | 26% | 1026 hPa | - | - | - | - |
| 1777625312 | 12.78° C | 28% | 1026 hPa | - | - | - | - |
| 1777624413 | 12.78° C | 28% | 1026 hPa | - | - | - | - |
| 1777623530 | 12.22° C | 28% | 1027 hPa | - | - | - | - |
* Rain since midnight (hover to see other rain measurements)
** Current wind speed in m/s (hover to see current wind gust speed)